Terug naar catalogus

COSMOS 931 DEB

LostHEO
NORAD 14000·DEBRIS·🇷🇺 Russia

Gelanceerd Jul 20, 1977 vanaf Plesetsk Cosmodrome

Loading…

Volgende Passages (komende 24 uur)

TLE

VerouderdSource: Space-Track

Epoch: Feb 18, 2024, 13:40 UTC

1 14000U 77068G   24049.56952014 -.00000022  00000-0  00000+0 0  9998
2 14000  71.5759 153.2097 5155585 352.8162  23.9570  2.00325698317786

Volg COSMOS 931 DEB in realtime met AllMySat

Download on the App Store